User: anonymous   Login
Location: Unspecified
(0.0000°N, 0.0000°E)
Time: 13:44:08
(UTC+02:00)
Language:

Meteor 1-10 Rocket - Orbit

View from above orbital plane
View from above orbital plane
View from above satellite
View from above satellite

Ground track
Ground track

The orbit data is extracted from the following two-line orbital elements,

1 05732U 71120B   16273.40189588  .00000152  00000-0  84003-4 0  9997
2 05732  81.2551  15.0479 0052034  57.3233 303.2939 14.05928240302294
Epoch (UTC): 29 September 2016 09:38:43
Eccentricity: 0.0052034
inclination: 81.2551°
perigee height: 835 km
apogee height: 911 km
right ascension of ascending node: 15.0479°
argument of perigee: 57.3233°
revolutions per day: 14.05928240
mean anomaly at epoch: 303.2939°
orbit number at epoch: 30229

The dashed part of the orbit path shows where the satellite is in the earth's shadow,  

DLR